Cloud_Cover
100 100 100 100 100 100 100 100 100 100 100 100 33 75 28 60 100 96 98 100 100 95 100 100 49 99 100 96 100 98 99 100 100 100 100 100 100 95 100 100 100 100 100
100 100 100 100 100 100 100 100 100 92 98 65 100 98 95 31 51 61 95 81 6 100 100 100 99 100 76 100 100 100 100 100 100 100 100 100 100 100 100 100 100 45 19
100 100 100 100 100 100 99 100 99 100 100 59 100 100 86 85 100 99 100 47 100 100 59 99 74 98 100 100 100 100 100 100 100 100 100 100 100 100 100 100 29 5 4
100 100 100 100 100 100 100 100 100 100 100 100 100 82 100 100 88 65 70 37 35 59 84 100 100 100 100 100 100 100 100 100 100 100 100 100 100 66 32 5 2 5 4
100 100 100 100 100 100 100 100 100 100 100 100 99 92 100 100 92 100 94 58 70 57 85 99 100 100 100 100 100 100 100 100 100 100 100 100 100 94 40 5 5 5 78
100 100 100 100 100 100 100 100 100 100 100 100 100 100 100 100 98 100 98 100 100 94 86 100 100 100 100 100 100 100 100 100 100 100 100 100 62 5 5 6 5 5 4
100 100 100 100 100 100 100 100 100 100 100 100 100 100 100 100 100 100 100 100 100 100 100 100 100 100 100 100 100 100 100 100 100 100 100 94 18 5 5 6 100 5 4
100 100 100 100 100 100 100 100 100 100 100 100 100 100 100 100 100 100 100 100 100 100 100 100 100 100 100 100 100 100 100 100 100 97 100 84 11 18 11 77 21 17 33
100 100 100 100 100 100 100 100 100 100 100 100 100 100 100 100 100 100 100 100 100 100 100 100 100 100 100 100 100 100 100 100 100 100 98 80 100 100 100 100 100 100 100
100 100 100 100 100 100 100 100 100 100 100 100 100 100 100 100 100 100 100 100 100 100 100 100 100 100 100 100 100 100 100 100 97 35 54 100 100 100 100 100 33 27 23
100 100 100 100 100 100 100 100 100 100 100 100 100 100 100 100 100 100 100 100 100 100 100 100 100 100 100 100 100 100 95 92 83 89 98 100 100 100 96 5 13 5 5
100 100 100 100 100 100 100 100 100 100 100 100 100 100 100 100 100 100 100 100 100 100 100 100 100 100 98 86 38 84 74 80 99 75 100 100 100 26 5 5 5 13 92
100 100 100 100 100 100 100 100 100 100 100 100 100 100 100 100 100 100 100 100 100 100 100 100 100 99 71 37 84 44 100 100 100 100 100 100 47 5 7 5 45 100 100
100 100 100 100 100 100 100 100 100 100 100 100 100 100 100 100 100 100 100 100 100 100 77 95 98 92 99 84 29 7 99 100 100 100 100 8 5 5 6 5 8 28 16
100 100 100 100 100 100 100 100 100 100 100 100 100 100 100 100 100 100 100 90 90 100 86 53 50 100 95 28 72 100 100 100 100 76 5 5 5 5 5 6 9 39 94
91 100 100 100 100 100 100 100 100 100 100 100 100 100 100 100 99 65 53 100 100 97 100 100 100 94 96 82 100 100 100 100 60 5 7 5 13 5 10 96 49 74 5
100 100 80 75 65 99 100 100 100 100 100 86 81 81 49 99 97 100 100 100 99 100 100 100 100 100 100 81 100 100 100 36 5 14 75 100 45 99 100 92 90 53 12
100 100 100 100 100 100 84 6 5 5 5 20 88 91 92 65 74 98 93 100 100 100 100 100 100 100 100 100 100 100 97 44 74 100 100 100 100 100 100 100 70 11 26
38 88 100 100 100 100 100 99 5 21 5 5 10 6 70 100 87 81 100 100 100 100 100 100 100 100 100 100 99 89 87 99 100 100 100 100 31 71 99 100 100 100 56
4 7 25 66 37 46 58 54 40 42 78 95 55 52 68 98 100 100 100 98 98 100 100 100 100 100 100 100 100 100 100 100 100 100 100 98 99 100 100 99 100 100 93
1 4 5 5 5 6 61 53 27 72 85 96 43 89 100 100 100 100 100 100 100 100 100 100 100 100 100 100 100 98 100 100 100 100 99 97 81 98 100 100 100 100 100
80 4 2 4 5 3 5 5 74 95 33 100 79 92 100 100 100 99 100 100 100 100 100 100 100 100 100 100 100 100 100 100 100 100 100 100 100 83 100 89 90 100 100
45 94 100 99 50 8 5 75 38 100 100 100 100 79 100 100 100 100 100 100 100 100 100 100 100 100 100 100 100 100 100 100 100 100 91 92 100 98 100 100 100 100 100
100 100 27 94 100 100 10 5 93 32 98 94 95 100 100 100 100 100 100 100 100 100 100 100 100 100 100 100 100 100 100 100 100 100 100 100 100 100 94 83 100 100 100
93 80 100 100 95 67 100 100 100 94 98 100 100 100 100 100 100 100 100 100 100 100 100 100 100 100 100 100 100 100 100 100 100 100 100 100 100 100 99 100 100 100 100
89 100 100 100 100 100 100 100 100 100 100 100 100 100 100 100 100 100 100 100 100 100 100 100 100 100 100 100 100 100 100 100 100 100 100 100 100 100 100 100 100 100 100